Location: North Evanston
(42.0634°N, 87.6976°W)
Time: 14:24:14
(UTC+00:00)

Injun/Solrad 3 - Pass Details

Date: 14 May 2026
Orbit: 867 x 989 km, 66.8° (Epoch: 7 June)

Event Time Altitude Azimuth Distance (km) Brightness Sun altitude
Rises 07:06:54 0° 325° (NW) 3,687 11.5 -26.5°
Reaches altitude 10° 07:09:31 10° 322° (NW) 2,744 10.7 -26.4°
Maximum altitude 07:15:45 55° 247° (WSW) 1,179 8.1 -25.9°
Enters shadow 07:15:47 55° 245° (WSW) 1,179 8.1 -25.9°
Drops below altitude 10° 07:21:59 10° 171° (S) 2,732 - -25.4°
Sets 07:24:35 0° 167° (SSE) 3,670 - -25.2°
